Погода в Тахтакупыре

Узбекистан     43°01′32″N   60°16′44″E
темп.,
°C
ветер,
м/с
пор.,
м/с
влажн.,
%
обл.,
%
осадки,
мм/ч
давл.,
гПа
погр.,
м
27 февраля, сб
сб2723:00−5ююз91388100 0.7 1026643
02:00−3ююз91674100 0.5 1023811
05:00−1ююз101760100 0.6 1021624
08:00−1з6897100 1.3 1021405
11:000з577172 1.3 1022491
14:00+4зюз675626 0.0 1022780
17:00+6зюз585540 0.0 1022929
20:00+5ююз698067 0.0 1022410
28 февраля, вс
вс2823:00+5ююз8138283 0.0 1022428
02:00+5ююз81374100 0.3 1021495
05:00+4ююз81261100 0.3 1020356
08:00+2ююз6105879 0.0 1020233
11:00+6ююз683577 0.0 1020361
14:00+10ю672734 0.0 1018808
17:00+11ю562417 0.0 10171050
20:00+6юв57360 0.0 1017144
1 марта, пн
пн123:00+5ююв47380 0.0 1017123
02:00+4ююв344115 0.0 101748
05:00+3ю335030 0.0 101622
08:00+3ю235397 0.0 101722
11:00+8ююз113793 0.0 1017307
14:00+11всв113052 0.0 1017793
17:00+12с332926 0.0 10171084
20:00+6с79830 0.0 1020360
2 марта, вт
вт223:00+4с57839 0.0 1022423
02:00+3с368355 0.0 1023256
05:00+2с358436 0.0 1023148
08:00+3с2486100 0.0 1025362
11:00+3ссз3480100 0.1 1026468
14:00+5сз3363100 0.0 1026803
17:00+5ссз3360100 0.0 1025861
20:00+4всв226993 0.0 102525
3 марта, ср
ср323:00+2св237597 0.0 102577
02:00+1в2377100 0.0 102568
05:000вюв348587 0.0 102451
08:000юв348778 0.0 102371
11:00+5ююв456267 0.0 1023522
14:00+8ююв55500 0.0 10211184
17:00+9ююв444539 0.0 10191467
20:00+7юв695291 0.0 1018429